Theta_e
330 330 330 330 331 330 330 330 330 330 329 327 325 324 324 323 322 321 320 319 317 315 315 314 313 312 309 304 300 298 297 295 294 293 293 293 292 292 291 291 291 290
329 330 330 330 330 330 330 330 330 330 329 327 325 324 324 322 322 321 319 317 315 314 314 313 311 309 305 300 298 296 295 294 293 292 292 292 292 291 291 290 290 290
329 329 329 329 330 329 330 330 330 330 329 327 326 324 323 322 322 321 317 314 315 314 312 310 308 306 302 298 296 295 293 293 293 292 292 292 291 291 291 290 289 289
329 329 329 329 330 330 330 330 329 329 328 327 326 324 323 321 321 320 316 314 314 311 308 306 305 302 299 296 294 294 293 292 292 292 291 291 291 290 290 289 289 289
328 329 329 329 330 330 329 329 329 328 327 327 325 323 322 321 321 319 316 313 310 306 305 304 301 298 296 294 293 293 292 292 292 291 291 291 290 290 289 289 289 289
327 327 327 328 329 329 329 329 328 327 327 325 323 321 321 320 319 317 315 310 306 304 302 300 298 296 294 293 292 292 292 292 292 291 291 291 290 289 289 288 289 288
325 326 326 327 328 328 329 328 328 327 326 323 322 321 321 320 317 315 312 307 303 302 299 297 295 294 293 292 292 292 292 292 291 291 291 291 290 289 289 288 288 288
325 325 325 325 326 326 327 327 326 326 324 322 321 321 321 319 317 313 308 304 301 299 296 295 294 293 292 292 291 292 291 291 291 290 290 290 289 289 289 288 288 288
323 324 324 324 325 325 326 326 325 324 323 321 321 321 320 318 315 310 304 301 299 297 295 294 293 292 291 291 291 292 291 291 290 290 290 290 289 289 288 288 288 288
322 323 323 323 324 323 323 324 323 321 321 321 321 320 319 316 311 305 301 300 297 295 294 293 292 292 291 291 291 291 291 290 290 290 289 289 289 289 288 288 288 288
321 321 321 321 322 321 321 322 321 320 321 321 321 319 316 311 306 302 300 298 295 294 293 292 291 291 291 291 290 290 290 290 290 289 289 289 288 288 288 288 288 287
320 320 319 320 320 320 320 321 319 319 320 319 319 317 312 306 302 300 298 296 294 293 292 292 291 291 291 291 290 290 290 290 289 289 288 288 288 288 287 287 287 287
317 318 318 319 319 319 319 319 318 319 318 317 315 312 307 303 300 298 296 294 293 292 291 291 291 290 290 290 290 290 290 289 289 288 288 288 288 287 287 287 287 287
317 318 317 317 317 317 317 318 317 317 316 314 311 306 303 301 299 296 294 293 292 291 291 290 290 290 290 289 289 289 289 289 288 288 288 287 287 287 287 286 286 286
317 317 316 316 316 316 316 316 315 314 312 309 305 302 301 299 296 294 293 291 291 290 290 290 290 290 289 289 289 289 288 288 288 288 287 287 287 286 286 286 286 286
314 314 314 315 314 314 314 313 312 310 307 303 301 300 298 296 294 293 292 291 290 290 289 289 289 289 289 289 289 288 288 288 288 287 287 287 286 286 286 286 286 285
313 313 312 312 312 312 311 310 309 306 302 300 299 297 295 294 292 291 291 290 290 289 289 289 289 288 288 288 288 288 287 287 287 287 287 286 286 286 286 286 285 285
312 311 311 310 310 310 309 307 305 301 299 298 296 294 293 292 291 291 290 290 289 289 289 289 288 288 288 288 287 287 287 287 287 287 286 286 286 286 286 285 285 285
310 309 309 308 308 308 306 303 300 298 297 296 294 292 291 291 290 290 289 289 289 289 288 288 288 287 287 287 287 287 287 287 287 286 286 286 286 286 285 285 285 285
307 307 307 307 306 305 302 300 297 296 295 293 292 291 290 290 290 289 289 289 288 288 288 288 287 287 287 287 287 286 287 286 286 286 286 286 286 285 285 285 285 284
305 304 304 304 303 301 299 297 295 294 292 291 291 290 290 290 289 289 288 288 288 288 288 287 287 287 287 286 286 286 286 286 286 286 285 285 285 285 285 285 284 284
303 302 301 301 300 298 297 295 293 292 291 290 290 289 289 289 289 288 288 287 287 287 287 287 286 286 286 286 286 286 286 285 285 285 285 285 285 285 284 284 284 284
302 301 300 300 298 296 295 293 292 291 290 290 289 289 288 288 288 288 287 287 287 286 286 286 286 286 286 286 286 285 285 285 285 285 285 284 284 284 284 284 284 284
302 301 300 299 297 296 294 292 291 290 289 289 289 289 288 288 287 287 287 286 286 286 286 286 286 285 285 285 285 285 285 285 285 284 284 284 284 284 284 284 284 283
301 300 299 299 297 295 293 292 290 290 289 289 288 288 288 287 287 287 286 286 286 286 285 286 286 285 285 285 285 285 285 285 284 284 284 284 284 284 284 284 283 283
299 298 298 297 296 293 292 290 289 289 288 288 287 287 287 286 286 286 286 285 285 285 285 285 285 285 285 285 285 285 285 284 284 284 284 284 284 284 284 283 283 283
Wind_Speed
36 36 35 35 34 33 32 30 29 27 26 24 20 20 23 22 17 14 15 16 16 14 13 13 12 12 12 12 13 13 13 14 14 14 12 11 11 9 8 8 7 7
35 35 35 34 33 33 31 30 28 27 27 25 21 22 25 22 17 17 16 16 15 15 15 14 13 13 13 15 15 14 15 14 14 13 11 10 10 8 8 7 7 6
35 34 34 34 33 32 31 29 28 27 27 26 23 24 26 22 18 17 15 14 16 16 16 15 15 15 16 16 15 15 15 14 14 13 11 10 9 7 7 6 6 6
34 34 34 34 33 32 30 29 29 29 28 26 25 26 25 22 19 16 14 15 17 17 17 17 17 18 18 17 16 16 15 14 13 12 10 10 9 7 7 5 5 5
33 33 33 33 32 32 30 30 31 30 28 28 28 27 25 22 19 16 16 18 18 18 20 20 20 20 18 18 17 16 15 14 13 12 10 10 9 7 6 5 4 5
31 32 33 33 33 32 31 30 32 30 28 30 30 27 25 21 18 17 19 20 20 22 23 22 22 21 19 18 18 16 15 14 13 12 10 9 8 7 6 5 4 5
30 31 32 33 33 32 31 32 31 29 29 31 30 27 24 19 17 19 21 22 23 24 24 23 22 21 20 19 18 17 15 13 12 11 9 8 7 6 6 5 3 4
29 30 31 32 32 32 33 33 32 30 30 32 30 26 22 19 19 22 24 25 26 25 24 23 22 22 21 20 18 17 15 14 12 10 8 7 7 6 6 4 3 4
28 29 30 31 32 33 34 34 33 32 32 32 28 23 21 20 22 25 27 27 27 26 25 24 23 22 21 19 17 16 15 14 12 10 8 7 7 5 4 3 3 4
28 29 30 31 32 33 34 34 34 35 33 30 25 22 22 23 25 27 29 29 28 26 25 24 24 23 21 19 17 15 14 13 12 10 8 7 6 4 3 2 3 4
28 29 31 32 32 32 32 33 34 34 32 28 25 24 26 27 28 30 30 30 28 27 26 25 24 23 21 20 18 16 14 12 11 10 8 6 4 3 2 2 4 5
29 29 30 31 32 32 32 32 33 31 29 27 26 27 29 30 31 32 31 29 28 26 25 25 24 22 21 20 18 16 14 12 10 9 7 5 4 2 2 3 4 6
29 29 30 31 31 32 32 32 31 28 26 26 27 29 32 33 34 33 31 29 27 26 26 25 24 22 21 19 17 15 13 11 10 8 6 5 3 2 2 3 4 6
27 27 28 30 31 31 30 29 28 26 26 28 30 32 34 35 35 33 31 29 27 27 26 25 24 22 21 19 17 15 13 11 10 8 6 5 4 2 2 3 4 5
28 28 28 29 29 28 28 26 26 27 28 30 32 34 35 35 34 33 31 29 28 27 26 25 23 22 20 18 16 15 13 11 9 8 6 4 3 3 2 3 4 5
27 28 29 28 28 27 25 25 26 28 31 33 34 35 36 35 34 32 31 30 29 28 26 25 23 21 20 17 15 14 13 11 9 8 6 4 3 2 2 3 3 5
26 27 27 26 25 24 24 25 29 31 33 35 36 36 36 35 33 32 30 30 29 28 27 25 23 21 20 17 16 14 12 10 9 7 6 5 3 2 2 2 3 4
26 26 25 25 24 24 26 29 32 34 35 36 37 36 35 34 33 32 31 30 29 28 26 25 23 21 19 17 16 14 12 10 8 6 5 4 2 1 2 2 3 4
25 25 25 25 26 27 29 32 34 36 37 37 37 36 35 34 33 32 31 30 29 28 26 25 23 21 19 17 15 13 11 9 7 6 5 3 2 1 2 2 3 4
27 27 27 28 29 30 32 34 36 37 37 37 37 36 35 34 33 32 31 30 29 28 26 25 23 21 19 17 15 13 11 9 7 5 4 2 2 1 2 3 4 5
29 29 30 30 31 33 34 35 36 37 37 37 36 36 35 35 34 33 32 31 29 27 26 24 22 20 18 16 15 13 10 9 7 5 4 3 2 1 2 3 5 6
30 31 31 32 33 34 35 36 37 37 37 37 36 35 35 34 33 33 32 31 29 27 26 24 22 20 18 16 14 13 10 9 7 5 4 3 2 1 2 4 5 6
31 32 33 34 35 36 37 38 38 38 38 37 37 36 35 34 33 32 31 30 29 27 25 24 23 20 18 16 14 12 10 9 7 5 4 3 3 2 2 4 5 6
32 33 34 35 36 38 39 39 38 38 38 37 37 37 35 34 33 32 31 29 28 27 25 23 22 20 18 16 14 12 10 9 7 6 5 4 2 1 2 3 4 5
32 33 35 36 37 38 39 39 39 38 37 36 36 35 35 34 33 32 31 29 27 26 24 23 21 20 18 16 14 12 10 9 8 6 5 4 2 1 1 2 3 4
31 33 34 35 37 37 37 37 37 37 36 35 34 34 33 33 32 31 30 29 28 26 24 23 21 20 18 16 14 12 11 9 8 6 4 3 2 1 1 2 2 2
Wind_Direction
220 220 221 221 220 219 218 214 212 211 209 205 208 215 207 200 206 227 237 237 241 237 216 204 201 192 179 164 156 152 148 147 142 138 139 134 125 119 115 109 102 93
220 220 221 221 219 218 218 216 215 213 207 205 214 216 205 202 215 228 235 234 230 220 209 204 194 182 172 162 158 156 154 151 142 137 136 131 126 125 119 109 100 90
220 219 220 220 218 217 216 215 214 212 207 206 209 208 204 204 213 225 234 226 216 212 205 195 182 172 166 161 160 158 156 152 142 139 142 137 131 131 122 110 100 90
219 219 220 219 219 217 214 212 210 206 204 206 203 202 203 204 212 227 230 217 212 206 192 181 172 167 165 163 163 162 157 153 146 146 151 142 134 134 124 114 105 93
219 219 218 217 217 215 211 211 209 202 202 204 201 198 201 204 214 226 220 210 205 191 177 171 167 166 166 166 166 164 160 157 152 153 159 148 139 136 125 122 118 99
218 217 216 215 214 211 210 211 207 204 205 203 198 195 197 206 217 220 212 203 191 180 172 168 168 167 167 168 169 168 165 163 157 158 163 150 140 139 132 130 122 98
216 215 213 213 211 208 209 208 205 207 207 199 193 194 200 210 217 210 204 194 181 176 172 169 170 169 169 172 173 170 167 165 161 162 164 151 144 145 138 130 108 84
215 213 211 209 207 205 206 204 203 205 203 195 191 196 206 217 215 202 194 185 177 175 173 172 173 172 172 175 177 174 168 165 165 166 164 156 153 152 141 122 88 66
213 211 209 207 205 204 203 202 201 198 196 194 193 199 209 213 206 195 186 180 177 175 174 174 175 174 174 177 179 178 171 166 165 166 166 163 161 154 132 104 72 47
209 207 205 204 204 203 199 198 196 190 190 194 198 206 208 202 196 189 181 178 178 177 176 177 177 176 176 178 179 178 174 168 166 167 169 167 160 142 111 82 44 28
204 204 202 200 201 199 195 193 191 188 189 195 203 207 201 192 188 183 180 180 179 179 179 179 179 180 179 178 177 176 173 170 168 169 168 161 148 124 95 55 26 22
200 200 198 197 196 194 191 190 190 190 192 198 203 200 192 186 183 181 180 181 181 181 181 180 180 181 180 179 177 174 172 172 171 169 162 153 139 120 86 37 23 20
197 195 195 194 193 190 188 188 190 194 198 201 199 193 186 182 180 179 181 181 181 182 182 182 181 180 180 180 177 173 174 174 171 165 159 154 146 125 76 35 22 19
194 194 193 190 188 187 188 191 194 199 201 198 192 188 184 181 180 180 179 180 182 182 182 183 182 181 181 180 176 174 176 174 170 166 163 157 145 117 66 39 20 14
191 192 191 190 189 190 193 196 198 198 195 190 186 184 182 180 180 181 180 179 181 182 182 183 183 182 182 180 178 176 175 172 170 167 164 158 139 112 69 43 19 8
191 190 190 191 192 193 195 197 197 193 188 185 183 182 181 180 181 181 181 181 181 181 181 181 182 182 180 179 178 177 175 174 172 168 162 153 134 109 69 34 20 8
192 191 192 193 195 197 199 198 194 189 185 183 181 181 181 181 181 181 182 183 184 183 182 181 181 182 180 178 177 176 178 177 172 169 162 151 140 104 66 27 16 6
197 198 198 199 201 203 201 195 190 186 183 182 181 181 181 180 181 182 182 184 185 183 183 183 181 181 180 179 178 177 179 179 174 171 164 153 142 98 61 32 14 3
206 205 204 205 204 201 196 190 187 185 183 182 181 181 181 181 182 184 184 185 185 184 184 183 181 181 180 179 179 179 179 179 175 171 165 153 129 89 36 19 10 3
211 209 206 204 200 195 192 189 187 184 183 183 182 181 182 182 183 184 185 185 186 186 184 183 182 182 181 179 179 180 180 179 176 171 163 147 123 82 23 6 3 3
209 205 201 198 194 192 191 188 186 185 184 184 184 183 184 184 184 185 186 185 186 186 184 182 182 183 182 180 180 181 180 178 176 173 161 143 120 79 24 3 2 2
203 199 196 195 193 191 190 188 187 187 186 185 184 184 185 185 185 186 187 186 185 186 185 182 182 184 183 182 182 183 182 180 177 173 161 146 123 82 22 5 1 357
201 198 196 194 193 191 190 189 189 188 188 186 185 184 184 185 186 186 187 188 186 185 186 184 182 184 186 185 185 184 183 182 178 172 164 152 128 87 18 2 354 349
202 200 198 196 195 193 192 190 190 190 189 188 187 186 185 185 187 186 186 188 188 186 188 188 185 185 188 189 188 187 186 184 182 178 169 157 132 82 15 354 347 343
204 202 202 200 197 196 193 192 192 191 189 189 188 188 186 185 186 186 185 186 188 188 188 189 189 187 189 193 191 188 189 189 188 186 172 157 141 89 343 332 340 338
206 204 204 203 200 197 194 193 193 191 189 188 187 188 186 185 185 186 185 185 186 187 188 190 192 191 192 196 194 190 193 195 194 194 186 178 179 182 264 294 321 325